When you browse on this site, cookies collect data to enhance your experience and personalize the content and advertising you see.
Visit our Privacy Policy to learn more. By continuing to use the site, you agree to this use of cookies and data.
  • In Latvia
  • List of Countries
  • For 7 days
  • Water Temperature
  • Satellite Maps
  • Weather Map
  • Weather Widgets
  • user-avatar
    Login

    Hourly Weather Merkulaevka

    Today, 22 March, Friday

    Time Temperature Precipitation Wind Pressure Humidity
    00:00 +4°C° 0 mm 1 mps 711 mmHg 93%
    01:00 +4°C° 0 mm 1 mps 711 mmHg 92%
    02:00 +4°C° 0 mm 1 mps 711 mmHg 90%
    03:00 +4°C° 0 mm 1 mps 711 mmHg 89%
    04:00 +4°C° 0.3 mm 1 mps 711 mmHg 88%
    05:00 +4°C° 0.3 mm 1 mps 711 mmHg 88%
    06:00 +4°C° 0.3 mm 1 mps 711 mmHg 88%
    07:00 +5°C° 0.4 mm 1 mps 711 mmHg 84%
    08:00 +4°C° 0.4 mm 2 mps 711 mmHg 80%
    09:00 +5°C° 0.4 mm 2 mps 711 mmHg 77%
    10:00 +6°C° 0.2 mm 2 mps 711 mmHg 72%
    11:00 +7°C° 0.2 mm 3 mps 711 mmHg 68%
    12:00 +8°C° 0.2 mm 3 mps 711 mmHg 64%
    13:00 +8°C° 0.1 mm 3 mps 711 mmHg 64%
    14:00 +8°C° 0.1 mm 3 mps 711 mmHg 63%
    15:00 +8°C° 0.1 mm 3 mps 710 mmHg 63%
    16:00 +7°C° 0 mm 3 mps 710 mmHg 66%
    17:00 +5°C° 0 mm 3 mps 710 mmHg 70%
    18:00 +6°C° 0 mm 2 mps 709 mmHg 73%
    19:00 +5°C° 0 mm 2 mps 709 mmHg 76%
    20:00 +4°C° 0 mm 2 mps 709 mmHg 78%
    21:00 +3°C° 0 mm 2 mps 709 mmHg 80%
    22:00 +2°C° 0 mm 3 mps 709 mmHg 78%
    23:00 +2°C° 0 mm 3 mps 708 mmHg 76%

    Tomorrow, 23 March, Saturday

    Time Temperature Precipitation Wind Pressure Humidity
    00:00 +2°C° 0 mm 3 mps 708 mmHg 73%
    01:00 +2°C° 0 mm 3 mps 707 mmHg 72%
    02:00 +1°C° 0 mm 4 mps 707 mmHg 72%
    03:00 +1°C° 0 mm 4 mps 706 mmHg 71%
    04:00 +1°C° 0 mm 4 mps 706 mmHg 70%
    05:00 +1°C° 0 mm 4 mps 705 mmHg 70%
    06:00 0°C° 0 mm 4 mps 705 mmHg 70%
    07:00 +3°C° 0 mm 4 mps 705 mmHg 66%
    08:00 +4°C° 0 mm 4 mps 705 mmHg 62%
    09:00 +5°C° 0 mm 4 mps 705 mmHg 58%
    10:00 +5°C° 0.3 mm 4 mps 705 mmHg 59%
    11:00 +5°C° 0.3 mm 3 mps 704 mmHg 61%
    12:00 +5°C° 0.3 mm 3 mps 704 mmHg 62%
    13:00 +5°C° 1.6 mm 2 mps 704 mmHg 71%
    14:00 +4°C° 1.6 mm 2 mps 704 mmHg 80%
    15:00 +2°C° 1.6 mm 2 mps 704 mmHg 90%
    16:00 +2°C° 1.6 mm 2 mps 704 mmHg 91%
    17:00 +1°C° 1.6 mm 2 mps 704 mmHg 92%
    18:00 +2°C° 1.6 mm 1 mps 704 mmHg 93%
    19:00 +1°C° 0.3 mm 1 mps 704 mmHg 93%
    20:00 +1°C° 0.3 mm 1 mps 705 mmHg 94%
    21:00 0°C° 0.3 mm 1 mps 705 mmHg 94%
    22:00 -1°C° 0.1 mm 1 mps 705 mmHg 94%
    23:00 -1°C° 0.1 mm 1 mps 706 mmHg 94%

    Day after tomorrow, 24 March, Sunday

    Time Temperature Precipitation Wind Pressure Humidity
    00:00 -2°C° 0.1 mm 1 mps 706 mmHg 94%
    01:00 -3°C° 0 mm 1 mps 706 mmHg 91%
    02:00 -4°C° 0 mm 1 mps 706 mmHg 88%
    03:00 -7°C° 0 mm 2 mps 706 mmHg 85%
    04:00 -7°C° 0 mm 2 mps 706 mmHg 82%
    05:00 -7°C° 0 mm 2 mps 706 mmHg 80%
    06:00 -7°C° 0 mm 2 mps 706 mmHg 77%
    07:00 -3°C° 0 mm 1 mps 706 mmHg 72%
    08:00 0°C° 0 mm 1 mps 707 mmHg 68%
    09:00 +2°C° 0 mm 0 mps 707 mmHg 63%
    10:00 +3°C° 0 mm 0 mps 707 mmHg 64%
    11:00 +4°C° 0 mm 1 mps 707 mmHg 65%
    12:00 +5°C° 0 mm 1 mps 707 mmHg 66%
    13:00 +5°C° 0.1 mm 1 mps 707 mmHg 70%
    14:00 +5°C° 0.1 mm 1 mps 706 mmHg 73%
    15:00 +4°C° 0.1 mm 1 mps 706 mmHg 76%
    16:00 +4°C° 0.2 mm 1 mps 706 mmHg 80%
    17:00 +3°C° 0.2 mm 1 mps 706 mmHg 83%
    18:00 +3°C° 0.2 mm 1 mps 706 mmHg 86%
    19:00 +2°C° 0 mm 1 mps 706 mmHg 88%
    20:00 +1°C° 0 mm 1 mps 706 mmHg 90%
    21:00 0°C° 0 mm 1 mps 706 mmHg 92%
    22:00 -1°C° 0 mm 1 mps 706 mmHg 91%
    23:00 -1°C° 0 mm 1 mps 706 mmHg 89%

    25 March, Monday

    Time Temperature Precipitation Wind Pressure Humidity
    00:00 -4°C° 0 mm 2 mps 706 mmHg 87%
    01:00 -4°C° 0 mm 2 mps 706 mmHg 86%
    02:00 -4°C° 0 mm 2 mps 705 mmHg 85%
    03:00 -4°C° 0 mm 2 mps 705 mmHg 84%
    04:00 -4°C° 0 mm 2 mps 705 mmHg 83%
    05:00 -4°C° 0 mm 2 mps 705 mmHg 82%
    06:00 -4°C° 0 mm 2 mps 705 mmHg 81%
    07:00 0°C° 0 mm 1 mps 706 mmHg 74%
    08:00 +3°C° 0 mm 1 mps 706 mmHg 68%
    09:00 +5°C° 0 mm 1 mps 706 mmHg 61%
    10:00 +6°C° 0 mm 1 mps 706 mmHg 61%
    11:00 +7°C° 0 mm 1 mps 706 mmHg 61%
    12:00 +8°C° 0 mm 1 mps 706 mmHg 60%
    13:00 +7°C° 0 mm 2 mps 706 mmHg 64%
    14:00 +7°C° 0 mm 2 mps 706 mmHg 67%
    15:00 +7°C° 0 mm 2 mps 705 mmHg 70%
    16:00 +6°C° 0 mm 2 mps 705 mmHg 76%
    17:00 +6°C° 0 mm 1 mps 705 mmHg 83%
    18:00 +5°C° 0 mm 1 mps 705 mmHg 89%
    19:00 +4°C° 0 mm 1 mps 705 mmHg 90%
    20:00 +3°C° 0 mm 1 mps 705 mmHg 92%
    21:00 +1°C° 0 mm 0 mps 705 mmHg 94%
    22:00 +1°C° 0 mm 0 mps 705 mmHg 93%
    23:00 +1°C° 0 mm 0 mps 705 mmHg 93%

    26 March, Tuesday

    Time Temperature Precipitation Wind Pressure Humidity
    00:00 0°C° 0 mm 0 mps 705 mmHg 93%
    01:00 0°C° 0 mm 0 mps 704 mmHg 93%
    02:00 0°C° 0 mm 0 mps 704 mmHg 93%
    03:00 0°C° 0 mm 0 mps 704 mmHg 93%
    04:00 0°C° 0 mm 0 mps 704 mmHg 93%
    05:00 +1°C° 0 mm 1 mps 704 mmHg 93%
    06:00 +1°C° 0 mm 1 mps 704 mmHg 93%
    07:00 +3°C° 0 mm 1 mps 704 mmHg 88%
    08:00 +4°C° 0 mm 1 mps 704 mmHg 83%
    09:00 +6°C° 0 mm 1 mps 705 mmHg 78%
    10:00 +7°C° 0 mm 1 mps 705 mmHg 76%
    11:00 +8°C° 0 mm 1 mps 705 mmHg 74%
    12:00 +9°C° 0 mm 1 mps 705 mmHg 72%
    13:00 +9°C° 0.3 mm 1 mps 704 mmHg 74%
    14:00 +9°C° 0.3 mm 1 mps 704 mmHg 76%
    15:00 +8°C° 0.3 mm 1 mps 704 mmHg 79%
    16:00 +8°C° 0.5 mm 1 mps 704 mmHg 83%
    17:00 +7°C° 0.5 mm 1 mps 704 mmHg 87%
    18:00 +6°C° 0.5 mm 1 mps 704 mmHg 91%
    19:00 +6°C° 0.3 mm 1 mps 704 mmHg 93%
    20:00 +5°C° 0.3 mm 1 mps 705 mmHg 95%
    21:00 +4°C° 0.3 mm 0 mps 705 mmHg 97%
    22:00 +4°C° 0 mm 1 mps 705 mmHg 97%
    23:00 +4°C° 0 mm 1 mps 705 mmHg 96%

    27 March, Wednesday

    Time Temperature Precipitation Wind Pressure Humidity
    00:00 +4°C° 0 mm 1 mps 705 mmHg 96%
    01:00 +3°C° 0 mm 1 mps 705 mmHg 95%
    02:00 +3°C° 0 mm 1 mps 705 mmHg 93%
    03:00 +2°C° 0 mm 1 mps 705 mmHg 92%
    04:00 +2°C° 0 mm 1 mps 705 mmHg 91%
    05:00 +2°C° 0 mm 1 mps 705 mmHg 89%
    06:00 +1°C° 0 mm 1 mps 706 mmHg 87%
    07:00 +3°C° 0 mm 1 mps 706 mmHg 84%
    08:00 +5°C° 0 mm 1 mps 707 mmHg 82%
    09:00 +7°C° 0 mm 1 mps 707 mmHg 79%
    10:00 +8°C° 0 mm 1 mps 707 mmHg 79%
    11:00 +8°C° 0 mm 1 mps 707 mmHg 79%
    12:00 +9°C° 0 mm 1 mps 707 mmHg 79%
    13:00 +9°C° 0.1 mm 1 mps 707 mmHg 78%
    14:00 +9°C° 0.1 mm 1 mps 707 mmHg 77%
    15:00 +10°C° 0.1 mm 1 mps 707 mmHg 76%
    16:00 +9°C° 0.1 mm 1 mps 707 mmHg 80%
    17:00 +8°C° 0.1 mm 1 mps 707 mmHg 84%
    18:00 +7°C° 0.1 mm 1 mps 707 mmHg 88%
    19:00 +7°C° 0 mm 1 mps 707 mmHg 90%
    20:00 +6°C° 0 mm 1 mps 707 mmHg 91%
    21:00 +5°C° 0 mm 0 mps 707 mmHg 93%
    22:00 +4°C° 0 mm 0 mps 707 mmHg 94%
    23:00 +4°C° 0 mm 0 mps 707 mmHg 94%
    Show more